This demonstration page uses our WeatherBlox Daily Observations layout. Learn more.

Left ArrowRight Arrow

Hourly Observations for March 19, 2017

Temp ( °F °C ) Dew Point ( °F °C ) Humidity (%) Winds ( mph kmh ) Pressure ( in mb ) Visibility ( mi km ) Precip ( " mm )
12:52 am 00:52 Partly Cloudy 45 7.2 32 0 61 61 E 7 11 30.24 1024 10 16 0.00 0.00
1:52 am 01:52 Mostly Clear 51 10.6 27 -2.8 39 39 E 9 15 30.22 1024 10 16 0.00 0.00
2:52 am 02:52 Mostly Cloudy 52 11.1 27 -2.8 38 38 SE 8 13 30.21 1023 10 16 0.00 0.00
3:52 am 03:52 Cloudy 53 11.7 29 -1.7 40 40 SE 7 11 30.20 1023 10 16 0.00 0.00
4:52 am 04:52 Cloudy 53 11.7 28 -2.2 38 38 SSE 14 22 30.20 1023 10 16 0.00 0.03
5:52 am 05:52 Partly Cloudy 53 11.7 23 -5 31 31 SE 10 17 30.21 1023 10 16 0.00 0.00
6:52 am 06:52 Cloudy 54 12.2 22 -5.6 29 29 SSE 15 24 30.21 1023 10 16 0.00 0.00
7:52 am 07:52 Partly Cloudy 53 11.7 24 -4.4 32 32 SE 18 30 30.22 1023 10 16 0.00 0.00
8:52 am 08:52 Mostly Cloudy 55 12.8 27 -2.8 34 34 SE 20 31 30.22 1023 10 16 0.00 0.00
9:52 am 09:52 Cloudy 58 14.4 30 -1.1 35 35 SSE 18 30 30.22 1023 10 16 0.00 0.00
10:52 am 10:52 Sunny 61 16.1 34 1.1 36 36 SSE 17 28 30.22 1023 10 16 0.00 0.00
11:52 am 11:52 Sunny 65 18.3 39 3.9 39 39 SSE 17 28 30.19 1023 10 16 0.00 0.00
12:52 pm 12:52 Sunny 69 20.6 44 6.7 41 41 S 15 24 30.17 1022 10 16 0.00 0.00
1:52 pm 13:52 Sunny 72 22.2 47 8.3 41 41 SSE 18 30 30.13 1020 10 16 0.00 0.00
2:52 pm 14:52 Sunny 75 23.9 47 8.3 37 37 SSE 18 30 30.09 1019 10 16 0.00 0.00
3:52 pm 15:52 Sunny 76 24.4 47 8.3 36 36 SSE 17 28 30.06 1018 10 16 0.00 0.00
4:52 pm 16:52 Sunny 76 24.4 47 8.3 36 36 SSE 16 26 30.04 1017 10 16 0.00 0.00
5:52 pm 17:52 Sunny 75 23.9 46 7.8 36 36 SSE 18 30 30.01 1016 10 16 0.00 0.00
6:52 pm 18:52 Sunny 72 22.2 47 8.3 41 41 SSE 16 26 30.01 1016 10 16 0.00 0.00
7:52 pm 19:52 Clear 69 20.6 46 7.8 44 44 SSE 14 22 30.01 1016 10 16 0.00 0.00
8:52 pm 20:52 Clear 66 18.9 46 7.8 49 49 SSE 15 24 30.01 1016 10 16 0.00 0.00
9:52 pm 21:52 Clear 64 17.8 45 7.2 50 50 SSE 16 26 30.03 1017 10 16 0.00 0.00
10:52 pm 22:52 Clear 63 17.2 45 7.2 52 52 SSE 17 28 30.03 1017 10 16 0.00 0.00
11:52 pm 23:52 Clear 62 16.7 46 7.8 56 56 SSE 15 24 30.01 1016 10 16 0.00 0.00

Powered by AerisWeather